Weather History for Hallock, MN

Change the Weather History Date:

Monday, July 15, 2013

  Actual Average Record
Temperature  
Mean Temperature 70 °F -  
Max Temperature 84 °F 80 °F 98 °F (1936)
Min Temperature 57 °F 56 °F 40 °F (1934)
Cooling Degree Days 6    
Growing Degree Days 20 (Base 50)    
Moisture  
Dew Point 65 °F    
Average Humidity 82    
Maximum Humidity 94    
Minimum Humidity 69    
Precipitation  
Precipitation 0.00 in - - ()
Sea Level Pressure  
Sea Level Pressure 30.13 in    
Wind  
Wind Speed 5 mph (SSE)    
Max Wind Speed 20 mph    
Max Gust Speed 25 mph    
Visibility 10 miles    
Events      
Averages and records for this station are not official NWS values.
T = Trace of Precipitation, MM = Missing Value Source: NWS Daily Summary

Daily Weather History Graph

Daily Weather History Graph

Search for Another Location

Airport:

Trip Planner

Search our weather history database for the weather conditions in past years. The results will help you decide how hot, cold, wet, or windy it might be!

Date:

Astronomy

Jul. 15, 2013 Rise Set
Actual Time 5:41 AM CDT 9:25 PM CDT
Civil Twilight 5:00 AM CDT 10:05 PM CDT
Nautical Twilight 4:06 AM CDT 11:00 PM CDT
Astronomical Twilight 2:44 AM CDT 12:19 AM CDT
Moon 1:44 PM CDT (7/15) 12:00 AM CDT (7/15)
Length of Visible Light 17h 05m
Length of Day
15h 44m
Waxing Crescent, 45% of the Moon is Illuminated
Jul 15
Waxing Crescent
Jul 15
First Quarter
Jul 22
Full
Jul 29
Last Quarter
Aug 6
New

Hourly Weather History & Observations

Time (CDT) Temp. Heat Index Dew Point Humidity Pressure Visibility Wind Dir Wind Speed Gust Speed Precip Events Conditions
12:13 AM 62.6 °F - 60.8 °F 94% 30.19 in 10.0 mi NE 3.5 mph - N/A   Clear
12:33 AM 62.6 °F - 60.8 °F 94% 30.19 in 10.0 mi NNE 4.6 mph - N/A   Clear
12:54 AM 62.6 °F - 60.8 °F 94% 30.19 in 10.0 mi NNE 4.6 mph - N/A   Clear
1:13 AM 62.6 °F - 59.0 °F 88% 30.18 in 10.0 mi NE 4.6 mph - N/A   Clear
1:33 AM 62.6 °F - 57.2 °F 82% 30.18 in 10.0 mi NE 3.5 mph - N/A   Clear
1:54 AM 62.6 °F - 57.2 °F 82% 30.19 in 10.0 mi North 4.6 mph - N/A   Clear
2:13 AM 62.6 °F - 57.2 °F 82% 30.19 in 10.0 mi Calm Calm - N/A   Clear
2:33 AM 60.8 °F - 59.0 °F 94% 30.19 in 10.0 mi Calm Calm - N/A   Clear
2:53 AM 60.8 °F - 57.2 °F 88% 30.19 in 10.0 mi Calm Calm - N/A   Clear
3:13 AM 60.8 °F - 57.2 °F 88% 30.19 in 10.0 mi NW 3.5 mph - N/A   Mostly Cloudy
3:33 AM 60.8 °F - 57.2 °F 88% 30.19 in 10.0 mi NNW 5.8 mph - N/A   Overcast
3:53 AM 60.8 °F - 57.2 °F 88% 30.19 in 10.0 mi NNW 4.6 mph - N/A   Overcast
4:13 AM 62.6 °F - 59.0 °F 88% 30.19 in 10.0 mi NNW 3.5 mph - N/A   Overcast
4:33 AM 62.6 °F - 57.2 °F 82% 30.19 in 10.0 mi NNW 4.6 mph - N/A   Overcast
4:53 AM 60.8 °F - 57.2 °F 88% 30.19 in 10.0 mi Calm Calm - N/A   Overcast
5:13 AM 59.0 °F - 57.2 °F 94% 30.19 in 10.0 mi North 4.6 mph - N/A   Scattered Clouds
5:33 AM 57.2 °F - 55.4 °F 94% 30.19 in 10.0 mi North 3.5 mph - N/A   Scattered Clouds
5:53 AM 59.0 °F - 57.2 °F 94% 30.19 in 10.0 mi Calm Calm - N/A   Mostly Cloudy
6:13 AM 60.8 °F - 57.2 °F 88% 30.20 in 10.0 mi Calm Calm - N/A   Overcast
6:33 AM 60.8 °F - 57.2 °F 88% 30.19 in 10.0 mi Calm Calm - N/A   Overcast
6:53 AM 60.8 °F - 57.2 °F 88% 30.19 in 10.0 mi Calm Calm - N/A   Scattered Clouds
7:13 AM 60.8 °F - 57.2 °F 88% 30.19 in 10.0 mi Calm Calm - N/A   Clear
7:33 AM 62.6 °F - 57.2 °F 82% 30.19 in 10.0 mi Calm Calm - N/A   Clear
7:53 AM 64.4 °F - 57.2 °F 77% 30.19 in 10.0 mi Calm Calm - N/A   Clear
8:13 AM 64.4 °F - 59.0 °F 83% 30.19 in 10.0 mi NNE 3.5 mph - N/A   Clear
8:33 AM 66.2 °F - 59.0 °F 78% 30.19 in 10.0 mi Calm Calm - N/A   Clear
8:53 AM 66.2 °F - 60.8 °F 83% 30.19 in 10.0 mi Calm Calm - N/A   Clear
9:13 AM 68.0 °F - 60.8 °F 78% 30.19 in 10.0 mi Calm Calm - N/A   Clear
9:33 AM 69.8 °F - 62.6 °F 78% 30.18 in 10.0 mi Calm Calm - N/A   Clear
9:53 AM 71.6 °F - 62.6 °F 73% 30.18 in 10.0 mi SSE 3.5 mph - N/A   Clear
10:13 AM 71.6 °F - 64.4 °F 78% 30.18 in 10.0 mi SSE 3.5 mph - N/A   Clear
10:33 AM 71.6 °F - 64.4 °F 78% 30.17 in 10.0 mi Calm Calm - N/A   Mostly Cloudy
10:53 AM 73.4 °F - 64.4 °F 73% 30.17 in 10.0 mi Calm Calm - N/A   Overcast
11:13 AM 73.4 °F - 64.4 °F 73% 30.16 in 10.0 mi Calm Calm - N/A   Overcast
11:33 AM 75.2 °F - 66.2 °F 73% 30.16 in 10.0 mi Calm Calm - N/A   Mostly Cloudy
11:53 AM 75.2 °F - 66.2 °F 73% 30.16 in 10.0 mi Calm Calm - N/A   Scattered Clouds
12:13 PM 77.0 °F - 68.0 °F 74% 30.15 in 10.0 mi SSE 5.8 mph - N/A   Clear
12:34 PM 78.8 °F - 68.0 °F 69% 30.14 in 10.0 mi SE 4.6 mph - N/A   Clear
12:53 PM 78.8 °F - 69.8 °F 74% 30.14 in 10.0 mi ESE 5.8 mph - N/A   Clear
1:13 PM 80.6 °F 83.9 °F 69.8 °F 70% 30.13 in 10.0 mi SE 5.8 mph - N/A   Clear
1:34 PM 80.6 °F 83.9 °F 69.8 °F 70% 30.13 in 10.0 mi SSE 8.1 mph - N/A   Scattered Clouds
1:53 PM 80.6 °F 84.6 °F 71.6 °F 74% 30.12 in 10.0 mi South 12.7 mph - N/A   Scattered Clouds
2:13 PM 80.6 °F 84.6 °F 71.6 °F 74% 30.11 in 10.0 mi SSE 6.9 mph - N/A   Mostly Cloudy
2:34 PM 82.4 °F 87.2 °F 71.6 °F 70% 30.10 in 10.0 mi South 12.7 mph 16.1 mph N/A   Scattered Clouds
2:53 PM 82.4 °F 87.2 °F 71.6 °F 70% 30.10 in 10.0 mi SSE 10.4 mph - N/A   Scattered Clouds
3:13 PM 84.2 °F 90.9 °F 73.4 °F 70% 30.09 in 10.0 mi SSE 11.5 mph 17.3 mph N/A   Scattered Clouds
3:34 PM 82.4 °F 87.2 °F 71.6 °F 70% 30.08 in 10.0 mi SSE 13.8 mph 19.6 mph N/A   Mostly Cloudy
3:53 PM 80.6 °F 85.4 °F 73.4 °F 79% 30.08 in 10.0 mi South 13.8 mph 23.0 mph N/A   Mostly Cloudy
4:13 PM 82.4 °F 87.2 °F 71.6 °F 70% 30.08 in 10.0 mi South 17.3 mph 23.0 mph N/A   Mostly Cloudy
4:34 PM 80.6 °F 84.6 °F 71.6 °F 74% 30.08 in 10.0 mi South 15.0 mph 24.2 mph N/A   Mostly Cloudy
4:53 PM 80.6 °F 84.6 °F 71.6 °F 74% 30.08 in 10.0 mi South 19.6 mph 25.3 mph N/A   Mostly Cloudy
5:13 PM 78.8 °F - 71.6 °F 78% 30.08 in 10.0 mi South 18.4 mph - N/A   Mostly Cloudy
5:34 PM 78.8 °F - 69.8 °F 74% 30.08 in 10.0 mi South 17.3 mph 23.0 mph N/A   Mostly Cloudy
5:53 PM 78.8 °F - 71.6 °F 78% 30.07 in 10.0 mi South 12.7 mph 21.9 mph N/A   Mostly Cloudy
6:13 PM 77.0 °F - 69.8 °F 78% 30.07 in 10.0 mi South 16.1 mph 20.7 mph N/A   Mostly Cloudy
6:33 PM 77.0 °F - 69.8 °F 78% 30.06 in 10.0 mi South 16.1 mph 19.6 mph N/A   Overcast
6:53 PM 75.2 °F - 69.8 °F 83% 30.05 in 10.0 mi South 13.8 mph 17.3 mph N/A   Overcast
7:13 PM 75.2 °F - 69.8 °F 83% 30.04 in 10.0 mi SSE 17.3 mph 24.2 mph N/A   Overcast
7:32 PM 75.2 °F - 69.8 °F 83% 30.04 in 10.0 mi South 17.3 mph 23.0 mph N/A   Overcast
7:53 PM 75.2 °F - 69.8 °F 83% 30.03 in 10.0 mi South 17.3 mph 20.7 mph N/A   Overcast
8:13 PM 75.2 °F - 69.8 °F 83% 30.03 in 10.0 mi South 13.8 mph 19.6 mph N/A   Mostly Cloudy
8:33 PM 75.2 °F - 69.8 °F 83% 30.02 in 10.0 mi South 13.8 mph 18.4 mph N/A   Scattered Clouds
8:53 PM 73.4 °F - 69.8 °F 88% 30.02 in 10.0 mi SSE 9.2 mph - N/A   Mostly Cloudy
9:13 PM 73.4 °F - 69.8 °F 88% 30.02 in 10.0 mi South 12.7 mph - N/A   Overcast
9:33 PM 73.4 °F - 69.8 °F 88% 30.02 in 10.0 mi SSE 10.4 mph - N/A   Overcast
9:53 PM 73.4 °F - 69.8 °F 88% 30.02 in 10.0 mi SSE 11.5 mph 16.1 mph N/A   Overcast
10:13 PM 73.4 °F - 69.8 °F 88% 30.02 in 10.0 mi SSE 8.1 mph - N/A   Overcast
10:33 PM 73.4 °F - 69.8 °F 88% 30.02 in 10.0 mi South 6.9 mph - N/A   Overcast
10:53 PM 73.4 °F - 69.8 °F 88% 30.02 in 10.0 mi SSE 8.1 mph - N/A   Overcast
11:13 PM 73.4 °F - 69.8 °F 88% 30.02 in 10.0 mi SSE 6.9 mph - N/A   Overcast
11:33 PM 73.4 °F - 69.8 °F 88% 30.01 in 10.0 mi SSE 10.4 mph - N/A   Overcast
11:53 PM 73.4 °F - 69.8 °F 88% 30.01 in 10.0 mi SSE 9.2 mph - N/A   Overcast